When you browse on this site, cookies collect data to enhance your experience and personalize the content and advertising you see.
Visit our Privacy Policy to learn more. By continuing to use the site, you agree to this use of cookies and data.
  • en France
  • Liste des pays
  • À 7 jours
  • Température de l'eau
  • Carte satellitaire
  • Carte météo
  • Widgets météo
  • user-avatar
    Se connecter

    Météo par heure à Starotatyshevo

    Ce jour, 18 Février, Lundi

    Heure Température Précipitation Vent Pression Humidité
    00:00 -6°C° 0.3 mm 5 m/s 733 mmHg 91%
    01:00 -6°C° 0.3 mm 5 m/s 733 mmHg 92%
    02:00 -6°C° 0.3 mm 5 m/s 733 mmHg 93%
    03:00 -5°C° 0.3 mm 4 m/s 732 mmHg 93%
    04:00 -7°C° 0 mm 4 m/s 732 mmHg 94%
    05:00 -6°C° 0.2 mm 3 m/s 732 mmHg 94%
    06:00 -6°C° 0.2 mm 3 m/s 731 mmHg 95%
    07:00 -6°C° 0.2 mm 3 m/s 731 mmHg 95%
    08:00 -5°C° 0.2 mm 2 m/s 732 mmHg 95%
    09:00 -4°C° 0.2 mm 2 m/s 732 mmHg 95%
    10:00 -2°C° 0.2 mm 1 m/s 732 mmHg 95%
    11:00 -2°C° 0.1 mm 1 m/s 732 mmHg 94%
    12:00 -1°C° 0.1 mm 1 m/s 732 mmHg 93%
    13:00 -1°C° 0.1 mm 1 m/s 733 mmHg 91%
    14:00 -3°C° 0.2 mm 2 m/s 733 mmHg 92%
    15:00 -3°C° 0.2 mm 2 m/s 733 mmHg 92%
    16:00 -2°C° 0.2 mm 3 m/s 734 mmHg 93%
    17:00 -4°C° 0.1 mm 3 m/s 735 mmHg 93%
    18:00 -4°C° 0.1 mm 4 m/s 735 mmHg 93%
    19:00 -5°C° 0.1 mm 4 m/s 736 mmHg 93%
    20:00 -6°C° 0.3 mm 5 m/s 737 mmHg 92%
    21:00 -7°C° 0.3 mm 7 m/s 737 mmHg 91%
    22:00 -7°C° 0.3 mm 8 m/s 738 mmHg 90%
    23:00 -8°C° 0.1 mm 8 m/s 739 mmHg 88%

    Demain, 19 Février, Mardi

    Heure Température Précipitation Vent Pression Humidité
    00:00 -11°C° 0.1 mm 8 m/s 740 mmHg 86%
    01:00 -12°C° 0.1 mm 9 m/s 741 mmHg 84%
    02:00 -13°C° 0.1 mm 8 m/s 742 mmHg 84%
    03:00 -15°C° 0.1 mm 8 m/s 743 mmHg 84%
    04:00 -16°C° 0.1 mm 8 m/s 744 mmHg 84%
    05:00 -17°C° 0 mm 8 m/s 745 mmHg 84%
    06:00 -19°C° 0 mm 7 m/s 746 mmHg 84%
    07:00 -20°C° 0 mm 7 m/s 746 mmHg 84%
    08:00 -20°C° 0 mm 7 m/s 747 mmHg 84%
    09:00 -21°C° 0 mm 7 m/s 748 mmHg 84%
    10:00 -21°C° 0 mm 7 m/s 749 mmHg 84%
    11:00 -20°C° 0 mm 7 m/s 749 mmHg 83%
    12:00 -20°C° 0 mm 6 m/s 750 mmHg 82%
    13:00 -18°C° 0 mm 6 m/s 750 mmHg 80%
    14:00 -18°C° 0 mm 6 m/s 751 mmHg 81%
    15:00 -18°C° 0 mm 5 m/s 751 mmHg 81%
    16:00 -17°C° 0 mm 4 m/s 752 mmHg 82%
    17:00 -18°C° 0 mm 4 m/s 752 mmHg 84%
    18:00 -19°C° 0 mm 3 m/s 753 mmHg 86%
    19:00 -21°C° 0 mm 3 m/s 753 mmHg 89%
    20:00 -21°C° 0 mm 3 m/s 753 mmHg 89%
    21:00 -19°C° 0 mm 2 m/s 753 mmHg 89%
    22:00 -20°C° 0 mm 2 m/s 754 mmHg 89%
    23:00 -19°C° 0 mm 2 m/s 754 mmHg 89%

    Après-demain, 20 Février, Mercredi

    Heure Température Précipitation Vent Pression Humidité
    00:00 -19°C° 0 mm 2 m/s 754 mmHg 88%
    01:00 -19°C° 0 mm 2 m/s 754 mmHg 88%
    02:00 -19°C° 0 mm 2 m/s 754 mmHg 88%
    03:00 -19°C° 0 mm 2 m/s 754 mmHg 87%
    04:00 -19°C° 0 mm 2 m/s 754 mmHg 87%
    05:00 -19°C° 0 mm 2 m/s 753 mmHg 88%
    06:00 -19°C° 0 mm 2 m/s 753 mmHg 90%
    07:00 -19°C° 0 mm 3 m/s 753 mmHg 91%
    08:00 -18°C° 0 mm 3 m/s 753 mmHg 92%
    09:00 -17°C° 0 mm 3 m/s 753 mmHg 92%
    10:00 -17°C° 0 mm 4 m/s 753 mmHg 93%
    11:00 -15°C° 0 mm 4 m/s 753 mmHg 93%
    12:00 -14°C° 0 mm 4 m/s 753 mmHg 93%
    13:00 -12°C° 0 mm 4 m/s 753 mmHg 93%
    14:00 -12°C° 0 mm 5 m/s 752 mmHg 93%
    15:00 -11°C° 0 mm 5 m/s 752 mmHg 92%
    16:00 -11°C° 0 mm 5 m/s 752 mmHg 92%
    17:00 -10°C° 0 mm 5 m/s 751 mmHg 91%
    18:00 -10°C° 0 mm 6 m/s 751 mmHg 91%
    19:00 -10°C° 0 mm 6 m/s 751 mmHg 90%
    20:00 -10°C° 0 mm 6 m/s 750 mmHg 90%
    21:00 -11°C° 0 mm 6 m/s 750 mmHg 90%
    22:00 -11°C° 0 mm 6 m/s 749 mmHg 90%
    23:00 -11°C° 0 mm 6 m/s 749 mmHg 90%

    21 Février, Jeudi

    Heure Température Précipitation Vent Pression Humidité
    00:00 -10°C° 0 mm 6 m/s 749 mmHg 90%
    01:00 -9°C° 0 mm 6 m/s 748 mmHg 90%
    02:00 -9°C° 0 mm 6 m/s 748 mmHg 90%
    03:00 -9°C° 0 mm 6 m/s 748 mmHg 90%
    04:00 -8°C° 0 mm 7 m/s 748 mmHg 89%
    05:00 -8°C° 0.2 mm 7 m/s 747 mmHg 90%
    06:00 -8°C° 0.2 mm 7 m/s 747 mmHg 90%
    07:00 -8°C° 0.2 mm 7 m/s 747 mmHg 91%
    08:00 -8°C° 0.2 mm 7 m/s 747 mmHg 91%
    09:00 -8°C° 0.2 mm 7 m/s 747 mmHg 90%
    10:00 -7°C° 0.2 mm 7 m/s 748 mmHg 90%
    11:00 -7°C° 0.1 mm 7 m/s 748 mmHg 90%
    12:00 -7°C° 0.1 mm 7 m/s 748 mmHg 90%
    13:00 -5°C° 0.1 mm 6 m/s 748 mmHg 90%
    14:00 -5°C° 0.2 mm 6 m/s 747 mmHg 90%
    15:00 -5°C° 0.2 mm 6 m/s 747 mmHg 90%
    16:00 -5°C° 0.2 mm 6 m/s 747 mmHg 90%
    17:00 -6°C° 0.3 mm 6 m/s 747 mmHg 91%
    18:00 -6°C° 0.3 mm 6 m/s 747 mmHg 91%
    19:00 -6°C° 0.3 mm 6 m/s 747 mmHg 91%
    20:00 -6°C° 0.5 mm 6 m/s 747 mmHg 92%
    21:00 -6°C° 0.5 mm 6 m/s 747 mmHg 92%
    22:00 -6°C° 0.5 mm 5 m/s 747 mmHg 92%
    23:00 -6°C° 0.3 mm 5 m/s 747 mmHg 92%

    22 Février, Vendredi

    Heure Température Précipitation Vent Pression Humidité
    00:00 -6°C° 0.3 mm 5 m/s 746 mmHg 91%
    01:00 -6°C° 0.3 mm 5 m/s 746 mmHg 91%
    02:00 -4°C° 0.3 mm 4 m/s 746 mmHg 92%
    03:00 -4°C° 0.3 mm 4 m/s 745 mmHg 93%
    04:00 -4°C° 0.3 mm 3 m/s 745 mmHg 94%
    05:00 -3°C° 0.4 mm 4 m/s 745 mmHg 93%
    06:00 -3°C° 0.4 mm 4 m/s 744 mmHg 92%
    07:00 -2°C° 0.4 mm 5 m/s 744 mmHg 91%
    08:00 -2°C° 0.2 mm 5 m/s 744 mmHg 92%
    09:00 -2°C° 0.2 mm 5 m/s 744 mmHg 92%
    10:00 -2°C° 0.2 mm 4 m/s 743 mmHg 92%
    11:00 -1°C° 0.5 mm 5 m/s 743 mmHg 92%
    12:00 -1°C° 0.5 mm 5 m/s 743 mmHg 93%
    13:00 -1°C° 0.5 mm 5 m/s 743 mmHg 93%
    14:00 -2°C° 0.2 mm 4 m/s 743 mmHg 92%
    15:00 -1°C° 0.2 mm 3 m/s 743 mmHg 90%
    16:00 -1°C° 0.2 mm 3 m/s 743 mmHg 89%
    17:00 -2°C° 0 mm 3 m/s 743 mmHg 90%
    18:00 -4°C° 0 mm 2 m/s 743 mmHg 91%
    19:00 -5°C° 0 mm 2 m/s 744 mmHg 92%
    20:00 -7°C° 0.3 mm 3 m/s 744 mmHg 92%
    21:00 -7°C° 0.3 mm 3 m/s 745 mmHg 93%
    22:00 -9°C° 0.3 mm 4 m/s 745 mmHg 94%
    23:00 -8°C° 0.2 mm 4 m/s 746 mmHg 94%

    23 Février, Samedi

    Heure Température Précipitation Vent Pression Humidité
    00:00 -8°C° 0.2 mm 4 m/s 747 mmHg 94%
    01:00 -8°C° 0.2 mm 5 m/s 747 mmHg 94%
    02:00 -10°C° 0.2 mm 5 m/s 748 mmHg 93%
    03:00 -12°C° 0.2 mm 6 m/s 749 mmHg 92%
    04:00 -15°C° 0.2 mm 6 m/s 750 mmHg 91%
    05:00 -15°C° 0 mm 6 m/s 750 mmHg 91%
    06:00 -15°C° 0 mm 5 m/s 751 mmHg 92%
    07:00 -17°C° 0 mm 5 m/s 752 mmHg 92%
    08:00 -17°C° 0 mm 5 m/s 753 mmHg 92%
    09:00 -16°C° 0 mm 4 m/s 754 mmHg 92%
    10:00 -16°C° 0 mm 4 m/s 755 mmHg 92%
    11:00 -16°C° 0 mm 4 m/s 755 mmHg 91%
    12:00 -16°C° 0 mm 4 m/s 756 mmHg 91%
    13:00 -15°C° 0 mm 3 m/s 757 mmHg 90%
    14:00 -15°C° 0 mm 3 m/s 757 mmHg 90%
    15:00 -15°C° 0 mm 3 m/s 757 mmHg 90%
    16:00 -15°C° 0 mm 3 m/s 757 mmHg 90%
    17:00 -16°C° 0 mm 3 m/s 758 mmHg 91%
    18:00 -15°C° 0 mm 2 m/s 758 mmHg 93%
    19:00 -16°C° 0 mm 2 m/s 758 mmHg 94%
    20:00 -17°C° 0 mm 2 m/s 759 mmHg 94%
    21:00 -17°C° 0 mm 2 m/s 759 mmHg 95%
    22:00 -18°C° 0 mm 2 m/s 759 mmHg 95%
    23:00 -19°C° 0 mm 2 m/s 759 mmHg 95%
    Voir plus